Regional Weather Roundup
Issued by NWS Little Rock, AR

Home | Current Version | Previous Version | Text Only | Print | Product List | Glossary On
Versions: 1 2 3 4 5 6 7 8 9 10 11 12 13 14 15 16 17 18 19 20 21 22 23 24 25 26 27 28 29 30 31 32 33 34 35 36 37 38 39 40 41 42 43 44 45 46
000
ASUS44 KLZK 010205
RWRLZK

WEATHER ROUNDUP FOR ARKANSAS
NATIONAL WEATHER SERVICE LITTLE ROCK AR
900 PM CDT FRI JUL 31 2015

NOTE: "FAIR" INDICATES FEW OR NO CLOUDS BELOW 12,000 FEET WITH NO
SIGNIFICANT WEATHER AND/OR OBSTRUCTIONS TO VISIBILITY.

ARZ001-003-010-029-010300-
NORTHWEST ARKANSAS

CITY           SKY/WX    TMP DP  RH WIND       PRES   REMARKS
FAYETTEVILLE   MOCLDY    73  68  84 CALM      30.11R
FORT SMITH     MOCLDY    83  64  52 NE5       30.04R
HARRISON       CLEAR     74  67  78 W3        30.11R
BENTONVILLE    PTCLDY    79  57  47 CALM      30.12R
ROGERS         PTCLDY    78  64  61 CALM      30.12R
SILOAM SPGS    MOCLDY    75  61  60 CALM      30.10R
HIGHFILL       MOCLDY    76  66  71 CALM      30.11R
SPRINGDALE     CLEAR     81  61  50 CALM      30.13R
$$

ARZ004-005-016-010300-
NORTH CENTRAL ARKANSAS

CITY           SKY/WX    TMP DP  RH WIND       PRES   REMARKS
BATESVILLE     CLEAR     79  70  73 CALM      30.05R
FLIPPIN        CLEAR     77  66  69 CALM      30.06S
MTN HOME       CLEAR     76  67  73 CALM      30.07R
$$

ARZ040-041-010300-
WEST CENTRAL ARKANSAS

CITY           SKY/WX    TMP DP  RH WIND       PRES   REMARKS
MENA           CLEAR     77  68  73 CALM      30.08R
MOUNT IDA      CLEAR     76  67  73 CALM      30.04R
$$

ARZ009-017-025-026-028-010300-
NORTHEAST ARKANSAS

CITY           SKY/WX    TMP DP  RH WIND       PRES   REMARKS
JONESBORO      CLEAR     75  70  84 N3        30.03R
NEWPORT        CLEAR     83  67  58 CALM      30.05R HX  85
WALNUT RIDGE   CLEAR     84  64  51 CALM      30.03R HX  86
BLYTHEVILLE    CLEAR     79  70  74 CALM      30.03R
$$

ARZ022-023-033-042-044-010300-
CENTRAL ARKANSAS

CITY           SKY/WX    TMP DP  RH WIND       PRES   REMARKS
LITTLE ROCK    PTCLDY    83  66  56 E3        30.04R HX  85
N LITTLE ROCK  PTCLDY    81  67  61 E3        30.04R
JACKSONVILLE   CLEAR     78  68  71 CALM      30.04R
SEARCY         CLEAR     77  70  79 CALM      30.05R
HOT SPRINGS    CLEAR     82  61  48 E6        30.04R
RUSSELLVILLE   CLEAR     77  68  73 NE3       30.04R
CLINTON        FAIR      73  72  94 CALM      30.08R
$$

ARZ036-010300-
EAST ARKANSAS

CITY           SKY/WX    TMP DP  RH WIND       PRES   REMARKS
WEST MEMPHIS   CLEAR     80  69  69 N3        30.02R
$$

ARZ050-053-066-070-073-010300-
SOUTHWEST ARKANSAS

CITY           SKY/WX    TMP DP  RH WIND       PRES   REMARKS
ARKADELPHIA    FAIR      77  72  84 CALM      30.03R
CAMDEN         CLEAR     75  66  73 CALM      30.01R
TEXARKANA      CLEAR     78  63  59 CALM      30.02R
EL DORADO      LGT RAIN  80  64  58 N5        30.02R
DE QUEEN       CLEAR     76  70  82 CALM      30.01R
$$

ARZ056-057-069-010300-
SOUTHEAST ARKANSAS

CITY           SKY/WX    TMP DP  RH WIND       PRES   REMARKS
PINE BLUFF     CLEAR     80  66  62 N6        30.03R
STUTTGART      CLEAR     79  66  65 MISG      30.03R
MONTICELLO     CLEAR     77  68  73 CALM      30.01R

$$




USA.gov is the U.S. government's official web portal to all federal, state and local government web resources and services.